Observations for Trim Market St
| Time | AQI | Temp °C | Hum % | Pres Pa | CO μg/m³ | H₂S μg/m³ | NO μg/m³ | NO₂ μg/m³ | O₃ μg/m³ | SO₂ μg/m³ | PM1 μg/m³ | PM2.5 μg/m³ | PM10 μg/m³ |
|---|---|---|---|---|---|---|---|---|---|---|---|---|---|
| Saturday 22 August 2026 | |||||||||||||
| 16:34 | 2 | 23.3 | 39 | 65,554 | 0.01 | 0 | 1.29 | 8.03 | 70.93 | 0 | 3.56 | 8.76 | 13.2 |
| 16:32 | 2 | 23.3 | 39 | 65,550 | 0.12 | 0 | 1.51 | 15.8 | 67.25 | 0 | 2.85 | 8.23 | 11.58 |
| 16:31 | 2 | 23.3 | 39 | 65,572 | 0.09 | 0 | 1.58 | 25.25 | 64.83 | 0 | 3.56 | 7.17 | 8.34 |
| 16:29 | 2 | 23.3 | 39 | 65,572 | 0.14 | 0 | 1.57 | 37.52 | 57.7 | 0 | 3.56 | 9.29 | 14.02 |
| 16:26 | 2 | 23.2 | 39 | 65,546 | 0.09 | 0 | 1.49 | 13.35 | 67.2 | 0 | 3.56 | 8.23 | 10.77 |
| 16:17 | 2 | 22.8 | 40 | 65,527 | 0.22 | 0 | 1.65 | 7.53 | 70.76 | 0 | 3.56 | 8.16 | 11.55 |
| 16:16 | 2 | 22.8 | 40 | 65,515 | 0.1 | 0 | 1.6 | 7.14 | 68.09 | 0 | 4.28 | 8.67 | 13.14 |
| 16:15 | 2 | 22.7 | 41 | 65,499 | 0.03 | 0 | 1.5 | 8.27 | 67.47 | 0 | 2.85 | 8.66 | 13.13 |
| 16:14 | 2 | 22.7 | 41 | 65,479 | 0.06 | 0 | 1.32 | 10.23 | 68.66 | 0 | 4.99 | 13.4 | 17.93 |
| 16:13 | 2 | 22.6 | 41 | 65,483 | 0.04 | 0 | 1.23 | 13.23 | 66.53 | 0 | 4.28 | 7.58 | 13.92 |
| 16:12 | 2 | 22.6 | 41 | 65,460 | 0.1 | 0 | 1.22 | 9.62 | 68.16 | 0 | 3.56 | 9.15 | 13.11 |
| 16:11 | 2 | 22.6 | 41 | 65,458 | 0.23 | 0 | 1.3 | 10.32 | 68.07 | 0 | 3.56 | 9.15 | 13.11 |
| 16:10 | 2 | 22.6 | 41 | 65,458 | 0.4 | 0 | 1.35 | 25.3 | 60.25 | 0 | 2.85 | 9.15 | 13.11 |
| 16:09 | 2 | 22.5 | 41 | 65,456 | 0.13 | 0 | 1.3 | 17.34 | 68.56 | 0 | 3.56 | 9.16 | 15.51 |
| 16:08 | 2 | 22.5 | 41 | 65,456 | 0.26 | 0 | 1.37 | 14.76 | 69.45 | 0 | 3.56 | 8.1 | 9.92 |
| 16:07 | 2 | 22.5 | 41 | 65,481 | 0.45 | 0 | 1.35 | 20.97 | 62.84 | 0 | 2.14 | 6.52 | 7.53 |
| 16:06 | 2 | 22.5 | 41 | 65,489 | 0 | 0 | 1.19 | 12.56 | 70.72 | 0 | 2.85 | 8.63 | 12.31 |
| 16:05 | 2 | 22.6 | 41 | 65,469 | 0.01 | 0 | 1.16 | 13.95 | 90.64 | 0 | 2.14 | 6 | 8.32 |
| 16:04 | 2 | 22.6 | 41 | 65,471 | 0 | 0 | 1.15 | 13.63 | 66.35 | 0 | 3.56 | 8.11 | 9.92 |
| 15:59 | 2 | 22.6 | 41 | 65,481 | 0 | 0 | 1.16 | 13.54 | 77.29 | 0 | 0.71 | 6.01 | 7.53 |